Flag for U.S.A. Weather past 2 weeks in Lynchburg, Virginia, U.S.A.

Now
26 °F

Clear.


Feels Like: 26 °F
Forecast: 27 / 43 °F
Wind: No wind

Location: Lynchburg Regional Airport

Current Time: Dec 20, 2014 at 6:36:32 AM

Latest Report: Dec 20, 2014 at 5:54 AM


Visibility: 10 mi

Pressure: 30.29 "Hg

Humidity: 88%

Dew point: 23 °F

Location of LynchburgLocation

Historic Weather in Lynchburg — Graph

°F

Lynchburg temperature yesterday

Maximum temperature yesterday: 46 °F (at 1:54 PM)
Minimum temperature yesterday: 24 °F (at 6:54 AM)
Average temperature yesterday: 35 °F

Past Weeks' High & Low Weather Summary

 TemperatureHumidityPressure
High57 °F (Dec 13, 2:54 PM)100% (Dec 6, 1:01 AM)30.53 "Hg (Dec 6, 1:01 AM)
Low24 °F (Dec 13, 5:54 AM)21% (Dec 12, 12:54 PM)29.87 "Hg (Dec 16, 2:54 PM)
Average40 °F67%30.13 "Hg
* Reported Dec 5 4:54 AM — Dec 20 4:54 AM, Lynchburg, Weather by CustomWeather, © 2014

Note: Actual official high and low records may vary slightly from our data, if they occured in-between our weather recording intervals... More about our weather records

Advertising

Lynchburg weather history for previous 24 hours

 ConditionsComfort  
Time TempWeatherWind HumidityBarometerVisibility
4:54 AM
Dec 20
26 °FClear.No wind84%30.28 "Hg10 mi
3:54 AM27 °FClear.No wind85%30.25 "Hg10 mi
2:54 AM26 °FClear.No wind84%30.25 "Hg10 mi
1:54 AM27 °FClear.No wind81%30.26 "Hg10 mi
12:54 AM29 °FClear.3 mph79%30.25 "Hg10 mi
11:54 PM
Dec 19
31 °FClear.6 mph76%30.24 "Hg10 mi
10:54 PM33 °FClear.10 mph70%30.23 "Hg10 mi
9:54 PM33 °FClear.5 mph72%30.24 "Hg10 mi
8:54 PM34 °FClear.6 mph70%30.22 "Hg10 mi
7:54 PM38 °FClear.No wind60%30.20 "Hg10 mi
6:54 PM39 °FClear.3 mph57%30.19 "Hg10 mi
5:54 PM36 °FClear.No wind64%30.18 "Hg10 mi
4:54 PM39 °FSunny.No wind60%30.15 "Hg10 mi
3:54 PM44 °FSunny.No wind45%30.14 "Hg10 mi
2:54 PM45 °FSunny.No wind44%30.14 "Hg10 mi
1:54 PM46 °FSunny.6 mph42%30.13 "Hg10 mi
12:54 PM44 °FSunny.No wind43%30.13 "Hg10 mi
11:54 AM43 °FSunny.5 mph45%30.15 "Hg10 mi
10:54 AM41 °FSunny.3 mph49%30.19 "Hg10 mi
9:54 AM36 °FSunny.6 mph59%30.19 "Hg10 mi
8:54 AM33 °FSunny.5 mph72%30.17 "Hg10 mi
7:54 AM27 °FSunny.N/A85%30.16 "Hg10 mi
6:54 AM24 °FClear.No wind88%30.15 "Hg10 mi
Weather by CustomWeather, © 2014

See weather overviewHow to use our weather pages